Location: Newark
(30.4994°N, 96.8283°W)
Time: 18:47:02
(UTC+00:00)

Envisat - Pass Details

Date: 28 November 2019
Orbit: 764 x 766 km, 98.1° (Epoch: 14 December)

Event Time Altitude Azimuth Distance (km) Brightness Sun altitude
Rises 12:10:30 0° 32° (NNE) 3,231 6.4 -11.6°
Reaches altitude 10° 12:13:27 10° 50° (NE) 2,301 5.9 -11.0°
Maximum altitude 12:17:03 19° 95° (E) 1,735 6.0 -10.2°
Drops below altitude 10° 12:20:38 10° 141° (SE) 2,292 6.5 -9.5°
Sets 12:23:32 0° 158° (SSE) 3,213 6.9 -8.9°
